This demonstration page uses our WeatherBlox Daily Observations layout. Learn more.

Hourly Observations for February 21, 2019

Temp ( °F °C ) Dew Point ( °F °C ) Humidity (%) Winds ( mph kmh ) Pressure ( in mb ) Visibility ( mi km ) Precip ( " mm )
12:54 am 00:54 Clear 8 -13.3 4 -15.6 83 83 Calm 30.08 1019 10 16.0934 0 0
1:54 am 01:54 Clear 8 -13.3 4 -15.6 83 83 Calm 30.1 1019 10 16.0934 0 0
2:54 am 02:54 Clear 5 -15 1 -17.2 83 83 Calm 30.1 1019 8 12.87472 0 0
3:54 am 03:54 Clear 5 -15 1 -17.2 83 83 Calm 30.12 1020 8 12.87472 0 0
4:54 am 04:54 Clear -2 -18.9 -3 -19.4 96 96 Calm 30.15 1021 7 11.26538 0 0
5:54 am 05:54 Clear -1 -18.3 -4 -20 87 87 NNW 5 7 30.16 1022 8 12.87472 0 0
6:54 am 06:54 Clear -1 -18.3 -5 -20.6 82 82 NW 3 6 30.2 1023 8 12.87472 0 0
7:54 am 07:54 Sunny -2 -18.9 -5 -20.6 87 87 N 6 9 30.23 1024 7 11.26538 0 0
8:54 am 08:54 Sunny 5 -15 2 -16.7 87 87 Calm 30.25 1024 7 11.26538 0 0
9:54 am 09:54 Sunny 10 -12.2 4 -15.6 76 76 NNW 7 11 30.27 1025 7 11.26538 0 0.0254
10:54 am 10:54 Mostly Cloudy 19 -7.2 10 -12.2 68 68 NNW 5 7 30.27 1025 9 14.48406 0 0
11:54 am 11:54 Sunny 26 -3.3 14 -10 60 60 NE 10 17 30.25 1024 9 14.48406 0 0
12:54 pm 12:54 Sunny 26 -3.3 14 -10 60 60 NE 10 17 30.23 1024 10 16.0934 0 0
1:54 pm 13:54 Sunny 28 -2.2 16 -8.9 60 60 NE 12 19 30.2 1023 8 12.87472 0 0
2:54 pm 14:54 Partly Cloudy 29 -1.7 17 -8.3 61 61 ENE 9 15 30.21 1023 8 12.87472 0 0
3:54 pm 15:54 Cloudy 32 0 17 -8.3 54 54 E 12 19 30.24 1024 9 14.48406 0 0
4:54 pm 16:54 Mostly Cloudy 31 -0.6 19 -7.2 61 61 E 10 17 30.24 1024 9 14.48406 0 0
5:54 pm 17:54 Cloudy 30 -1.1 20 -6.7 66 66 E 9 15 30.26 1025 8 12.87472 0 0
6:54 pm 18:54 Cloudy 29 -1.7 19 -7.2 66 66 ENE 12 19 30.27 1025 10 16.0934 0 0
7:54 pm 19:54 Cloudy 28 -2.2 18 -7.8 66 66 NE 10 17 30.29 1026 9 14.48406 0 0
8:54 pm 20:54 Cloudy 28 -2.2 18 -7.8 66 66 ENE 14 22 30.29 1026 9 14.48406 0 0
9:54 pm 21:54 Cloudy 28 -2.2 18 -7.8 66 66 NE 10 17 30.31 1026 8 12.87472 0 0
10:54 pm 22:54 Cloudy 28 -2.2 19 -7.2 69 69 E 10 17 30.29 1026 8 12.87472 0 0
11:54 pm 23:54 Cloudy 28 -2.2 19 -7.2 69 69 E 9 15 30.28 1026 8 12.87472 0 0

Powered by AerisWeather